Voltar ao catálogo

STARLINK-35073

AtivoComunicaçõesSSO
NORAD 65385·PAYLOAD·🇺🇸 United States

Lançado Aug 30, 2025 de Vandenberg Space Force Base

Loading…

Próximas Passagens (próximas 24 horas)

TLE

AtualizadoSource: CelesTrak SupGP

Época: Sep 15, 2026, 03:47 UTC

1 65385C 25191G   26258.15812500 -.00000089  00000+0 -27471-5 0  2582
2 65385  97.2844 124.2644 0001748  94.5035 145.1552 15.33443548    16

Acompanhe STARLINK-35073 em tempo real com AllMySat

Download on the App Store